Regional Weather Roundup
Issued by NWS Green Bay, WI

Home | Current Version | Previous Version | Graphics & Text | Print | Product List | Glossary Off
Versions: 1 2 3 4 5 6 7 8 9 10 11 12 13 14 15 16 17 18 19 20 21 22 23 24 25 26 27 28 29 30 31 32 33 34 35 36 37 38 39 40 41 42 43 44 45 46 47 48 49 50

000
ASUS43 KGRB 010511
RWRGRB

NORTH-CENTRAL AND NORTHEAST WISCONSIN REGIONAL WEATHER ROUNDUP
NATIONAL WEATHER SERVICE GREEN BAY WI
1200 AM CDT SUN MAY 01 2016

WIZ005-009-010>012-018-019-010600-
NORTH CENTRAL WISCONSIN

CITY           SKY/WX    TMP DP  RH WIND       PRES   REMARKS
IRONWOOD         N/A     36  34  93 NE3       30.17S
MANITOWISH WTR PTCLDY    38  33  84 NE12      30.15S
ARBOR VITAE    PTCLDY    39  32  75 NE9       30.14S
EAGLE RIVER    CLOUDY    37  30  75 NE8       30.13S
LAND O LAKES   CLOUDY    37  32  81 NE7       30.15S
RHINELANDER    CLOUDY    41  31  67 NE6       30.14R
PHILLIPS       PTCLDY    40  31  70 NE10G18   30.13S
ANTIGO         CLOUDY    42  31  64 NE15      30.09F
TOMAHAWK       CLOUDY    42  31  65 NE5       30.13S
MERRILL        NOT AVBL
$$

WIZ013-073-010600-
NORTHEAST WISCONSIN

CITY           SKY/WX    TMP DP  RH WIND       PRES   REMARKS
IRON MOUNTAIN  CLOUDY    40  32  73 N7        30.11F
MARINETTE      CLOUDY    45  30  57 NE14      30.08S
OCONTO         CLOUDY    46  32  60 N8        30.08R
$$

WIZ017-030-035>037-045-010600-
CENTRAL WISCONSIN

CITY           SKY/WX    TMP DP  RH WIND       PRES   REMARKS
MEDFORD        CLOUDY    44  33  63 NE10      30.09R
WAUSAU         CLOUDY    49  30  48 NE12G23   30.07R
MOSINEE        CLOUDY    46  32  57 NE9       30.08R
MARSHFIELD     CLOUDY    49  34  56 NE12      30.06S
WISC RAPIDS    LGT RAIN  48  33  56 E12       30.07S
STEVENS POINT  DRIZZLE   46  32  58 E10G22    30.07S
WAUPACA        CLOUDY    50  33  52 N9        30.05F
SHAWANO        CLOUDY    49  32  53 NE12G20   30.08F
CLINTONVILLE   CLOUDY    46  32  57 NE12G17   30.07F
WAUTOMA        LGT RAIN  44  39  82 NE6       30.04F
$$

WIZ038-039-048-051-010600-
FOX VALLEY

CITY           SKY/WX    TMP DP  RH WIND       PRES   REMARKS
NWS GREEN BAY  CLOUDY    46  35  65 NE26G37   30.06S
APPLETON       CLOUDY    46  32  57 NE17      30.04R
OSHKOSH        CLOUDY    47  36  65 NE13      30.03S
FOND DU LAC    CLOUDY    45  37  73 E8        30.03F
$$

WIZ022-050-052-010600-
EAST CENTRAL WISCONSIN

CITY           SKY/WX    TMP DP  RH WIND       PRES   REMARKS
EPHRAIM        FAIR      41  35  79 N9        30.07S
STURGEON BAY   CLOUDY    45  32  61 NE10      30.09S
MANITOWOC      CLOUDY    44  36  73 N12G22    30.05F
SHEBOYGAN      CLOUDY    42  37  82 N8        30.02F
$$

LMZ563-521-522-541>543-010600-
LAKESHORE

STATION/POSITION TIME  TEMP    WIND        PRES    VSBY  WAVE
                       AIR SEA DIR/SP/G                  HT/PER
                 (UTC) (F)     (DEG/KT/KT) (MB)    (MI)  (FT/S)
SHEBOYGAN LKSHOR 0500   42      10/ 11/ 13 1017.5F
KEWAUNEE LKSHORE 0400   45      30/ 20/ 28 1016.7F
ALGOMA MARINA    0445           40/ 18/ 23   N/A
NORTHPORT PIER   0400   43      20/ 15/ 22 1019.0F
N MID LAKE BUOY  0450   41 39   20/ 16/ 17 1018.6F         2/ 4
CHAMBERS ISLAND  0400   42      10/ 16/ 20 1019.3F
MENOMINEE LKSHOR 0400   46     360/ 15/ 19 1017.5F
$$




USA.gov is the U.S. government's official web portal to all federal, state and local government web resources and services.